Weather in Tías

Spain     28°57′16″N   13°39′08″W
temp.,
°C
wind,
m/s
gust,
m/s
humid.,
%
clouds,
%
prec.,
mm/h
press.,
hPa
HPBL,
m
7 march, sun
sun700:00+16n912741 0.4 1022955
03:00+16n1013750 0.1 1022943
06:00+17n9117136 0.2 10211244
09:00+17n10107248 0.2 10231046
12:00+17n10106830 0.3 10231049
15:00+17n910684 0.0 1022956
18:00+16n10117314 0.1 10201131
21:00+16n9107082 0.1 10221197
8 march, mon
mon800:00+16n897291 0.1 10221151
03:00+16n896988 0.1 10201150
06:00+16n897293 0.3 10191093
09:00+16n8117061 0.1 10201208
12:00+17n9106633 0.1 10211176
15:00+17n896145 0.1 10191194
18:00+16n10116929 0.1 10181154
21:00+16n10127016 0.1 10201243
9 march, tue
tue900:00+16n10127217 0.3 10191148
03:00+16n9127330 0.1 1018960
06:00+15n10137121 0.3 1018997
09:00+15n11136332 0.3 10191435
12:00+16nne11126124 0.3 10201333
15:00+16n1113641 0.0 10191268
18:00+15n1214688 0.1 10181181
21:00+14nne1214724 0.0 10201186
10 march, wed
wed1000:00+15nne11137023 0.1 10211176
03:00+14nne11147331 0.0 10201021
06:00+14nne11147439 0.0 1019960
09:00+15nne11137227 0.1 10211052
12:00+17nne11126625 0.1 10231084
15:00+17nne11126716 0.0 10211004
18:00+16nne1113719 0.0 1021941
21:00+16nne1113720 0.0 1022883
11 march, thu
thu1100:00+16nne1013770 0.0 1022755
03:00+16nne912810 0.0 1021672
06:00+15ne812820 0.0 1021555
09:00+17ne912786 0.0 1022754
12:00+20ne910633 0.0 1023654
15:00+21ne77600 0.0 1021594
18:00+20ne77690 0.0 1020372
21:00+17ne79790 0.0 1022284